Location: Bergnershof
(48.9468°N, 10.9431°E)
Time: 05:02:30
(UTC+00:00)

Cosmos 2369 Rocket - Pass Details

Date: 03 March 2021
Orbit: 829 x 852 km, 71.0° (Epoch: 11 April)

Event Time Altitude Azimuth Distance (km) Brightness Sun altitude
Rises 19:44:49 0° 335° (NNW) 3,384 6.0 -26.9°
Reaches altitude 10° 19:48:23 10° 358° (N) 2,448 4.9 -27.4°
Enters shadow 19:51:08 15° 28° (NNE) 2,104 4.2 -27.8°
